Regional Weather Roundup
Issued by NWS

Home | Current Version | Previous Version | Graphics & Text | Print | Product List | Glossary On
Versions: 1 2 3 4 5 6 7 8 9 10 11 12 13 14 15 16 17 18 19 20 21 22 23 24 25 26 27 28 29 30 31 32 33 34 35 36 37 38 39 40 41 42 43 44 45 46 47 48 49 50
000
ASUS44 KMEG 260000
RWRTN
TENNESSEE HOURLY STATE WEATHER ROUNDUP
NATIONAL WEATHER SERVICE MEMPHIS TN
700 PM CDT SAT OCT 25 2014

TNZ002-004-019-021-049-052-054-088>092-260100-
WEST TENNESSEE

CITY           SKY/WX    TMP DP  RH WIND       PRES   REMARKS
MEMPHIS INTL   CLEAR     73  63  70 S3        30.03R
NWS MEMPHIS      N/A     70 N/A N/A MISG        N/A
JACKSON        CLEAR     68  62  81 S3        30.02S
DYERSBURG      CLEAR     70  55  60 CALM      30.03R
UNION CITY     CLEAR     70  63  78 CALM      30.01R
PARIS          CLEAR     63  61  94 CALM      30.03R
LEXINGTON      CLEAR     68  64  88 CALM      30.02R
SAVANNAH       CLEAR     66  66 100 CALM      30.03S
$$

TNZ008-025-027-028-033-062-065-066-260100-
NORTH MIDDLE TENNESSEE

CITY           SKY/WX    TMP DP  RH WIND       PRES   REMARKS
NASHVILLE      PTCLDY    70  61  73 NW3       30.02R
CLARKSVILLE    CLEAR     70  61  73 CALM      30.01S
CROSSVILLE     CLEAR     59  55  87 CALM      30.06R
$$

TNZ061-075-076-078-094-096-097-260100-
SOUTH MIDDLE TENNESSEE

CITY           SKY/WX    TMP DP  RH WIND       PRES   REMARKS
SHELBYVILLE    PTCLDY    68  63  83 CALM      30.04R
$$

TNZ017-018-042-046-047-260100-
NORTHEAST TENNESSEE

CITY           SKY/WX    TMP DP  RH WIND       PRES   REMARKS
TRI CITIES     CLOUDY    62  49  62 S3        30.02R
ELIZABETHTON   CLOUDY    57  50  77 CALM      30.02S
$$

TNZ012-013-036-069-073-074-260100-
CENTRAL EAST TENNESSEE

CITY           SKY/WX    TMP DP  RH WIND       PRES   REMARKS
KNOXVILLE      CLEAR     63  49  60 SW5       30.02R
OAK RIDGE      CLEAR     62  53  72 CALM      30.03S
GATLINBURG     MOCLDY    59  48  67 CALM      30.03R
$$

TNZ083-085-099-260100-
SOUTHEAST TENNESSEE

CITY           SKY/WX    TMP DP  RH WIND       PRES   REMARKS
CHATTANOOGA    MOCLDY    67  57  70 CALM      30.03R
$$

SKY/WX REPORTED AS FAIR MEANS FEW OR NO CLOUDS BELOW
12 THOUSAND FEET.




USA.gov is the U.S. government's official web portal to all federal, state and local government web resources and services.